Kemmerer, WY

6:51 AM MDT on May 30, 2017 (GMT -0600)
Kemmerer Municipal

Weather History for KEMM - May, 2014

Change the Weather History Date:

Saturday, May 17, 2014

  Actual Average Record
Temperature  
Mean Temperature 52 °F -  
Max Temperature 68 °F 64 °F 78 °F (1970)
Min Temperature 35 °F 33 °F 20 °F (1953)
Degree Days  
Heating Degree Days 14    
Growing Degree Days 2 (Base 50)    
Moisture  
Dew Point 31 °F    
Average Humidity 50    
Maximum Humidity 100    
Minimum Humidity 15    
Precipitation  
Precipitation 0.00 in - - ()
Sea Level Pressure  
Sea Level Pressure 30.07 in    
Wind  
Wind Speed 7 mph (WNW)    
Max Wind Speed 22 mph    
Max Gust Speed 29 mph    
Visibility 10 miles    
Events      
Averages and records for this station are not official NWS values.
T = Trace of Precipitation, MM = Missing Value Source: NWS Daily Summary

Daily Weather History Graph

Daily Weather History Graph

Search for Another Location

Airport or City:

Trip Planner

Search our weather history database for the weather conditions in past years. The results will help you decide how hot, cold, wet, or windy it might be!

Date:

Astronomy

May. 17, 2014 Rise Set
Actual Time 6:00 AM MDT 8:37 PM MDT
Civil Twilight 5:28 AM MDT 9:09 PM MDT
Nautical Twilight 4:48 AM MDT 9:49 PM MDT
Astronomical Twilight 4:02 AM MDT 10:35 PM MDT
Moon 11:40 PM MDT (5/17) 8:47 AM MDT (5/17)
Length of Visible Light 15h 41m
Length of Day
14h 37m
Waning Gibbous, 89% of the Moon is Illuminated
May 17
Waning Gibbous
May 21
Last Quarter
May 28
New
Jun 5
First Quarter
Jun 12
Full

Hourly Weather History & Observations

Time (MDT) Temp. Windchill Dew Point Humidity Pressure Visibility Wind Dir Wind Speed Gust Speed Precip Events Conditions
12:15 AM 44.6 °F 42.2 °F 35.6 °F 71% 30.14 in 10.0 mi ENE 4.6 mph - N/A   Scattered Clouds
12:35 AM 44.6 °F 41.4 °F 35.6 °F 71% 30.14 in 10.0 mi East 5.8 mph - N/A   Scattered Clouds
12:55 AM 44.6 °F 43.1 °F 35.6 °F 71% 30.14 in 10.0 mi SE 3.5 mph - N/A   Scattered Clouds
1:15 AM 42.8 °F 41.1 °F 35.6 °F 76% 30.13 in 10.0 mi ESE 3.5 mph - N/A   Scattered Clouds
1:35 AM 42.8 °F 40.1 °F 35.6 °F 76% 30.12 in 10.0 mi SE 4.6 mph - N/A   Clear
1:55 AM 42.8 °F 41.1 °F 35.6 °F 76% 30.12 in 10.0 mi SE 3.5 mph - N/A   Clear
2:15 AM 42.8 °F 39.3 °F 35.6 °F 76% 30.11 in 10.0 mi SE 5.8 mph - N/A   Clear
2:35 AM 42.8 °F 39.3 °F 35.6 °F 76% 30.12 in 10.0 mi ESE 5.8 mph - N/A   Clear
2:55 AM 41.0 °F 36.4 °F 35.6 °F 81% 30.12 in 10.0 mi ESE 6.9 mph - N/A   Clear
3:15 AM 41.0 °F 38.0 °F 35.6 °F 81% 30.12 in 10.0 mi East 4.6 mph - N/A   Clear
3:35 AM 41.0 °F - 35.6 °F 81% 30.12 in 10.0 mi Calm Calm - N/A   Clear
3:55 AM 41.0 °F 39.0 °F 35.6 °F 81% 30.11 in 10.0 mi ESE 3.5 mph - N/A   Clear
4:15 AM 41.0 °F - 35.6 °F 81% 30.11 in 10.0 mi Calm Calm - N/A   Clear
4:35 AM 41.0 °F - 35.6 °F 81% 30.11 in 10.0 mi Calm Calm - N/A   Clear
4:55 AM 41.0 °F - 35.6 °F 81% 30.11 in 10.0 mi Calm Calm - N/A   Clear
5:15 AM 39.2 °F - 35.6 °F 87% 30.11 in 10.0 mi Calm Calm - N/A   Clear
5:35 AM 37.4 °F 32.8 °F 33.8 °F 87% 30.10 in 10.0 mi North 5.8 mph - N/A   Clear
5:55 AM 35.6 °F 29.2 °F 33.8 °F 93% 30.10 in 10.0 mi North 8.1 mph 28.8 mph N/A   Clear
6:15 AM 35.6 °F 30.7 °F 35.6 °F 100% 30.10 in 10.0 mi North 5.8 mph - N/A   Clear
6:35 AM 35.6 °F 29.9 °F 33.8 °F 93% 30.10 in 10.0 mi North 6.9 mph - N/A   Clear
6:55 AM 35.6 °F 29.9 °F 33.8 °F 93% 30.11 in 10.0 mi North 6.9 mph - N/A   Clear
7:15 AM 37.4 °F 32.8 °F 35.6 °F 93% 30.11 in 10.0 mi North 5.8 mph - N/A   Clear
7:35 AM 41.0 °F 37.1 °F 37.4 °F 87% 30.10 in 10.0 mi North 5.8 mph - N/A   Clear
7:55 AM 42.8 °F 41.1 °F 37.4 °F 81% 30.10 in 10.0 mi North 3.5 mph - N/A   Clear
8:15 AM 44.6 °F 42.2 °F 37.4 °F 76% 30.10 in 10.0 mi North 4.6 mph - N/A   Clear
8:35 AM 46.4 °F - 37.4 °F 71% 30.10 in 10.0 mi Calm Calm - N/A   Clear
8:55 AM 50.0 °F - 37.4 °F 62% 30.11 in 10.0 mi SSW 4.6 mph - N/A   Clear
9:15 AM 51.8 °F - 37.4 °F 58% 30.11 in 10.0 mi SSW 3.5 mph - N/A   Clear
9:35 AM 51.8 °F - 37.4 °F 58% 30.11 in 10.0 mi SSW 4.6 mph - N/A   Clear
9:55 AM 53.6 °F - 37.4 °F 54% 30.10 in 10.0 mi SSW 4.6 mph - N/A   Clear
10:15 AM 57.2 °F - 39.2 °F 51% 30.10 in 10.0 mi SW 9.2 mph - N/A   Clear
10:35 AM 59.0 °F - 35.6 °F 42% 30.10 in 10.0 mi West 10.4 mph - N/A   Clear
10:55 AM 59.0 °F - 35.6 °F 42% 30.10 in 10.0 mi West 11.5 mph - N/A   Clear
11:15 AM 60.8 °F - 33.8 °F 36% 30.10 in 10.0 mi West 13.8 mph 17.3 mph N/A   Clear
11:35 AM 60.8 °F - 32.0 °F 34% 30.09 in 10.0 mi West 12.7 mph 20.7 mph N/A   Clear
11:55 AM 62.6 °F - 32.0 °F 32% 30.09 in 10.0 mi West 16.1 mph 20.7 mph N/A   Clear
12:15 PM 62.6 °F - 32.0 °F 32% 30.08 in 10.0 mi West 11.5 mph 20.7 mph N/A   Clear
12:35 PM 62.6 °F - 28.4 °F 27% 30.08 in 10.0 mi West 17.3 mph 26.5 mph N/A   Clear
12:55 PM 64.4 °F - 26.6 °F 24% 30.07 in 10.0 mi West 18.4 mph 24.2 mph N/A   Scattered Clouds
1:15 PM 64.4 °F - 26.6 °F 24% 30.07 in 10.0 mi West 18.4 mph 28.8 mph N/A   Clear
1:35 PM 64.4 °F - 23.0 °F 21% 30.06 in 10.0 mi West 18.4 mph 25.3 mph N/A   Clear
1:55 PM 66.2 °F - 19.4 °F 17% 30.06 in 10.0 mi WNW 15.0 mph 28.8 mph N/A   Clear
2:15 PM 66.2 °F - 19.4 °F 17% 30.06 in 10.0 mi West 18.4 mph 25.3 mph N/A   Clear
2:35 PM 68.0 °F - 19.4 °F 16% 30.06 in 10.0 mi WNW 21.9 mph 28.8 mph N/A   Clear
2:55 PM 66.2 °F - 17.6 °F 15% 30.06 in 10.0 mi West 17.3 mph 24.2 mph N/A   Clear
3:15 PM 66.2 °F - 17.6 °F 15% 30.05 in 10.0 mi WNW 16.1 mph 25.3 mph N/A   Clear
3:35 PM 66.2 °F - 17.6 °F 15% 30.04 in 10.0 mi WNW 16.1 mph 26.5 mph N/A   Clear
3:55 PM 66.2 °F - 17.6 °F 15% 30.04 in 10.0 mi West 12.7 mph 21.9 mph N/A   Clear
4:15 PM 66.2 °F - 17.6 °F 15% 30.03 in 10.0 mi West 12.7 mph 23.0 mph N/A   Clear
4:35 PM 66.2 °F - 19.4 °F 17% 30.03 in 10.0 mi West 13.8 mph 23.0 mph N/A   Clear
4:55 PM 64.4 °F - 21.2 °F 19% 30.02 in 10.0 mi WNW 17.3 mph - N/A   Clear
5:15 PM 64.4 °F - 21.2 °F 19% 30.02 in 10.0 mi WNW 13.8 mph 19.6 mph N/A   Clear
5:35 PM 66.2 °F - 23.0 °F 19% 30.02 in 10.0 mi West 12.7 mph 20.7 mph N/A   Clear
5:55 PM 64.4 °F - 23.0 °F 21% 30.02 in 10.0 mi West 9.2 mph 12.7 mph N/A   Clear
6:15 PM 64.4 °F - 24.8 °F 22% 30.01 in 10.0 mi WNW 9.2 mph - N/A   Clear
6:35 PM 62.6 °F - 26.6 °F 26% 30.01 in 10.0 mi West 9.2 mph - N/A   Clear
6:55 PM 62.6 °F - 28.4 °F 27% 30.01 in 10.0 mi West 10.4 mph - N/A   Clear
7:15 PM 60.8 °F - 28.4 °F 29% 30.01 in 10.0 mi West 11.5 mph 16.1 mph N/A   Clear
7:35 PM 60.8 °F - 30.2 °F 31% 30.01 in 10.0 mi West 8.1 mph - N/A   Clear
7:55 PM 59.0 °F - 30.2 °F 34% 30.00 in 10.0 mi WNW 6.9 mph - N/A   Clear
8:15 PM 57.2 °F - 30.2 °F 36% 30.00 in 10.0 mi WNW 5.8 mph - N/A   Clear
8:35 PM 55.4 °F - 30.2 °F 38% 29.99 in 10.0 mi WNW 5.8 mph - N/A   Clear
8:55 PM 53.6 °F - 30.2 °F 41% 29.99 in 10.0 mi WNW 4.6 mph - N/A   Clear
9:15 PM 53.6 °F - 28.4 °F 38% 29.99 in 10.0 mi West 3.5 mph - N/A   Clear
9:35 PM 53.6 °F - 28.4 °F 38% 29.99 in 10.0 mi Calm Calm - N/A   Clear
10:15 PM 51.8 °F - 30.2 °F 44% 29.99 in 10.0 mi Calm Calm - N/A   Clear
10:35 PM 53.6 °F - 26.6 °F 35% 29.99 in 10.0 mi Calm Calm - N/A   Clear
10:55 PM 50.0 °F - 30.2 °F 47% 29.99 in 10.0 mi Calm Calm - N/A   Clear
11:15 PM 50.0 °F - 30.2 °F 47% 29.98 in 10.0 mi Calm Calm - N/A   Clear
11:35 PM 48.2 °F - 30.2 °F 50% 29.98 in 10.0 mi Calm Calm - N/A   Clear
11:55 PM 50.0 °F - 30.2 °F 47% 29.97 in 10.0 mi Calm Calm - N/A   Clear